Weather History for Monticello, KY

Change the Weather History Date:

Friday, November 22, 2013

  Actual Average Record
Temperature  
Mean Temperature 53 °F -  
Max Temperature 61 °F 53 °F 75 °F (1983)
Min Temperature 43 °F 34 °F 7 °F (2008)
Degree Days  
Heating Degree Days 12    
Growing Degree Days 3 (Base 50)    
Moisture  
Dew Point 56 °F    
Average Humidity 95    
Maximum Humidity 100    
Minimum Humidity 83    
Precipitation  
Precipitation 0.25 in - - ()
Sea Level Pressure  
Sea Level Pressure 30.25 in    
Wind  
Wind Speed 6 mph (West)    
Max Wind Speed 16 mph    
Max Gust Speed 22 mph    
Visibility 3 miles    
Events Fog , Rain    
Averages and records for this station are not official NWS values.
T = Trace of Precipitation, MM = Missing Value Source: NWS Daily Summary

Daily Weather History Graph

Daily Weather History Graph

Search for Another Location

Airport:

Trip Planner

Search our weather history database for the weather conditions in past years. The results will help you decide how hot, cold, wet, or windy it might be!

Date:

Astronomy

Nov. 22, 2013 Rise Set
Actual Time 6:25 AM CST 4:25 PM CST
Civil Twilight 5:57 AM CST 4:53 PM CST
Nautical Twilight 5:25 AM CST 5:25 PM CST
Astronomical Twilight 4:54 AM CST 5:56 PM CST
Moon 8:55 PM CST (11/22) 10:09 AM CST (11/22)
Length of Visible Light 10h 56m
Length of Day
10h 00m
Waning Gibbous, 78% of the Moon is Illuminated
Nov 22
Waning Gibbous
Nov 25
Last Quarter
Dec 2
New
Dec 9
First Quarter
Dec 17
Full

Hourly Weather History & Observations

Time (CST) Temp. Windchill Dew Point Humidity Pressure Visibility Wind Dir Wind Speed Gust Speed Precip Events Conditions
12:56 AM 59.9 °F - 54.9 °F 83% 30.25 in 10.0 mi South 9.2 mph - 0.00 in   Scattered Clouds
1:56 AM 59.9 °F - 55.9 °F 87% 30.26 in 10.0 mi SSW 5.8 mph - N/A   Mostly Cloudy
2:56 AM 59.9 °F - 56.8 °F 90% 30.25 in 10.0 mi SSW 6.9 mph - 0.00 in   Mostly Cloudy
3:08 AM 60.8 °F - 57.2 °F 88% 30.24 in 10.0 mi SSW 4.6 mph - N/A   Overcast
3:56 AM 61.0 °F - 56.8 °F 86% 30.25 in 10.0 mi Calm Calm - N/A   Mostly Cloudy
4:18 AM 60.8 °F - 57.2 °F 88% 30.24 in 10.0 mi Calm Calm - N/A   Overcast
4:56 AM 59.9 °F - 56.8 °F 90% 30.26 in 10.0 mi Calm Calm - N/A   Overcast
5:22 AM 60.8 °F - 57.2 °F 88% 30.25 in 1.8 mi SSW 5.8 mph - 0.01 in Rain Rain
5:29 AM 59.0 °F - 57.2 °F 94% 30.25 in 1.5 mi SSW 4.6 mph - 0.01 in Rain Light Rain
5:36 AM 59.0 °F - 57.2 °F 94% 30.25 in 3.0 mi SW 4.6 mph - 0.01 in Rain Light Rain
5:44 AM 59.0 °F - 57.2 °F 94% 30.26 in 1.8 mi WSW 5.8 mph - 0.01 in Rain Light Rain
5:56 AM 57.9 °F - 57.9 °F 100% 30.28 in 1.8 mi SW 5.8 mph - 0.02 in Rain Light Rain
6:06 AM 57.2 °F - 57.2 °F 100% 30.26 in 1.5 mi SSW 4.6 mph - 0.00 in Rain Light Rain
6:18 AM 57.2 °F - 57.2 °F 100% 30.26 in 2.0 mi Calm Calm - 0.00 in Rain Light Rain
6:30 AM 57.2 °F - 57.2 °F 100% 30.26 in 3.0 mi Calm Calm - 0.00 in Rain Light Rain
6:46 AM 57.2 °F - 57.2 °F 100% 30.26 in 1.8 mi SSW 4.6 mph - 0.00 in Rain Light Rain
6:56 AM 57.9 °F - 57.9 °F 100% 30.27 in 1.5 mi South 3.5 mph - 0.00 in   Overcast
7:05 AM 57.2 °F - 57.2 °F 100% 30.26 in 2.5 mi Calm Calm - 0.00 in Rain Light Rain
7:23 AM 57.2 °F - 57.2 °F 100% 30.26 in 4.0 mi Calm Calm - 0.00 in   Overcast
7:31 AM 57.2 °F - 57.2 °F 100% 30.26 in 1.8 mi Calm Calm - 0.00 in   Overcast
7:41 AM 57.2 °F - 57.2 °F 100% 30.27 in 1.2 mi Calm Calm - 0.00 in   Overcast
7:56 AM 57.9 °F - 57.9 °F 100% 30.28 in 1.2 mi Calm Calm - 0.00 in   Overcast
8:06 AM 57.2 °F - 57.2 °F 100% 30.26 in 2.0 mi Calm Calm - N/A   Overcast
8:17 AM 57.2 °F - 57.2 °F 100% 30.26 in 4.0 mi SSW 4.6 mph - N/A   Overcast
8:29 AM 59.0 °F - 59.0 °F 100% 30.25 in 6.0 mi SSE 4.6 mph - N/A   Overcast
8:56 AM 59.9 °F - 59.0 °F 97% 30.28 in 5.0 mi SW 5.8 mph - 0.00 in Rain Light Rain
9:56 AM 59.9 °F - 59.0 °F 97% 30.28 in 5.0 mi SW 4.6 mph - 0.00 in   Overcast
10:04 AM 60.8 °F - 59.0 °F 94% 30.26 in 1.8 mi Calm Calm - 0.00 in Rain Light Rain
10:14 AM 60.8 °F - 59.0 °F 94% 30.26 in 1.2 mi Calm Calm - 0.01 in Rain Light Rain
10:29 AM 60.8 °F - 59.0 °F 94% 30.26 in 0.8 mi WSW 3.5 mph - 0.02 in Rain Rain
10:35 AM 60.8 °F - 59.0 °F 94% 30.26 in 0.5 mi WSW 4.6 mph - 0.04 in Fog , Rain Rain
10:44 AM 60.8 °F - 59.0 °F 94% 30.26 in 0.8 mi WSW 4.6 mph - 0.05 in Rain Light Rain
10:56 AM 59.9 °F - 59.0 °F 97% 30.27 in 1.0 mi West 5.8 mph - 0.06 in Rain Light Rain
11:08 AM 60.8 °F - 59.0 °F 94% 30.25 in 1.5 mi WSW 5.8 mph - 0.01 in Rain Light Rain
11:28 AM 60.8 °F - 59.0 °F 94% 30.24 in 1.2 mi WSW 5.8 mph - 0.03 in Rain Light Rain
11:34 AM 60.8 °F - 59.0 °F 94% 30.24 in 0.8 mi SW 8.1 mph - 0.04 in Rain Light Rain
11:46 AM 60.8 °F - 59.0 °F 94% 30.23 in 1.0 mi SW 5.8 mph - 0.05 in Rain Light Rain
11:56 AM 59.9 °F - 59.0 °F 97% 30.24 in 1.5 mi SW 8.1 mph - 0.05 in Rain Light Rain
12:04 PM 60.8 °F - 59.0 °F 94% 30.23 in 1.2 mi SW 8.1 mph - 0.01 in Rain Light Rain
12:12 PM 60.8 °F - 59.0 °F 94% 30.22 in 2.0 mi SW 6.9 mph - 0.01 in Rain Light Rain
12:22 PM 60.8 °F - 59.0 °F 94% 30.22 in 6.0 mi WSW 6.9 mph - 0.01 in Rain Light Rain
12:34 PM 60.8 °F - 59.0 °F 94% 30.22 in 2.5 mi SW 6.9 mph - 0.01 in Rain Light Rain
12:42 PM 60.8 °F - 59.0 °F 94% 30.21 in 2.5 mi SW 6.9 mph - 0.01 in Rain Light Rain
12:46 PM 60.8 °F - 59.0 °F 94% 30.21 in 3.0 mi SW 5.8 mph - 0.01 in Rain Light Rain
12:56 PM 59.9 °F - 59.0 °F 97% 30.22 in 1.2 mi SW 5.8 mph - 0.02 in Rain Light Rain
1:01 PM 60.8 °F - 59.0 °F 94% 30.21 in 0.8 mi SW 5.8 mph - 0.00 in Rain Light Rain
1:05 PM 60.8 °F - 59.0 °F 94% 30.21 in 1.0 mi SW 8.1 mph - 0.01 in Rain Light Rain
1:09 PM 60.8 °F - 59.0 °F 94% 30.21 in 1.5 mi WSW 8.1 mph - 0.01 in Rain Light Rain
1:11 PM 60.8 °F - 59.0 °F 94% 30.21 in 2.0 mi WSW 8.1 mph - 0.01 in Rain Light Rain
1:19 PM 60.8 °F - 57.2 °F 88% 30.21 in 4.0 mi WSW 8.1 mph - 0.01 in Rain Light Rain
1:23 PM 60.8 °F - 59.0 °F 94% 30.21 in 1.8 mi WSW 8.1 mph - 0.01 in Rain Light Rain
1:25 PM 60.8 °F - 59.0 °F 94% 30.21 in 1.2 mi WSW 6.9 mph - 0.02 in Rain Light Rain
1:28 PM 60.8 °F - 59.0 °F 94% 30.21 in 0.8 mi WSW 8.1 mph - 0.02 in Rain Rain
1:32 PM 60.8 °F - 59.0 °F 94% 30.21 in 0.5 mi WSW 5.8 mph - 0.04 in Fog , Rain Rain
1:40 PM 60.8 °F - 59.0 °F 94% 30.21 in 0.8 mi WSW 6.9 mph - 0.04 in Rain Light Rain
1:44 PM 60.8 °F - 59.0 °F 94% 30.21 in 1.2 mi WSW 5.8 mph - 0.05 in Rain Light Rain
1:56 PM 59.0 °F - 59.0 °F 100% 30.22 in 1.5 mi West 9.2 mph - 0.05 in Rain Light Rain
2:08 PM 59.0 °F - 57.2 °F 94% 30.21 in 2.5 mi West 10.4 mph - 0.00 in Rain Light Rain
2:11 PM 59.0 °F - 57.2 °F 94% 30.21 in 4.0 mi West 9.2 mph - 0.00 in Rain Light Rain
2:19 PM 59.0 °F - 57.2 °F 94% 30.21 in 8.0 mi West 10.4 mph - 0.00 in Rain Light Rain
2:27 PM 59.0 °F - 57.2 °F 94% 30.21 in 10.0 mi West 10.4 mph - 0.00 in   Overcast
2:41 PM 59.0 °F - 57.2 °F 94% 30.22 in 1.8 mi West 8.1 mph - 0.00 in Rain Light Rain
2:49 PM 59.0 °F - 57.2 °F 94% 30.22 in 1.2 mi West 8.1 mph - 0.01 in Rain Light Rain
2:56 PM 57.9 °F - 57.9 °F 100% 30.24 in 1.5 mi WNW 8.1 mph - 0.01 in Rain Light Rain
3:07 PM 57.2 °F - 57.2 °F 100% 30.23 in 1.2 mi NW 11.5 mph - 0.00 in Rain Light Rain
3:11 PM 57.2 °F - 57.2 °F 100% 30.23 in 1.0 mi NW 9.2 mph - 0.00 in Rain Light Rain
3:20 PM 57.2 °F - 55.4 °F 94% 30.24 in 0.5 mi NW 16.1 mph 21.9 mph 0.01 in Fog , Rain Rain
3:25 PM 57.2 °F - 55.4 °F 94% 30.24 in 0.8 mi NW 13.8 mph - 0.01 in Rain Light Rain
3:40 PM 55.4 °F - 55.4 °F 100% 30.25 in 0.8 mi NW 9.2 mph - 0.01 in Rain Light Rain
3:47 PM 55.4 °F - 55.4 °F 100% 30.25 in 1.2 mi NW 12.7 mph - 0.01 in Rain Light Rain
3:56 PM 54.9 °F - 54.0 °F 97% 30.26 in 1.0 mi NW 12.7 mph - 0.01 in Rain Light Rain
4:04 PM 55.4 °F - 53.6 °F 94% 30.25 in 0.8 mi NW 12.7 mph - 0.01 in Rain Light Rain
4:26 PM 53.6 °F - 53.6 °F 100% 30.25 in 1.2 mi NW 9.2 mph - 0.02 in Rain Light Rain
4:34 PM 53.6 °F - 53.6 °F 100% 30.25 in 2.0 mi NNW 10.4 mph - 0.02 in Rain Light Rain
4:56 PM 52.9 °F - 52.9 °F 100% 30.27 in 2.5 mi NNW 3.5 mph - 0.02 in Rain Light Rain
5:11 PM 53.6 °F - 51.8 °F 94% 30.27 in 3.0 mi North 11.5 mph - 0.00 in Rain Light Rain
5:27 PM 51.8 °F - 51.8 °F 100% 30.28 in 6.0 mi NNW 10.4 mph 19.6 mph 0.00 in Rain Light Rain
5:56 PM 52.0 °F - 50.9 °F 96% 30.30 in 5.0 mi NNW 8.1 mph - 0.00 in Rain Light Rain
6:06 PM 51.8 °F - 51.8 °F 100% 30.29 in 5.0 mi NNW 6.9 mph - 0.00 in Rain Light Rain
6:26 PM 51.8 °F - 51.8 °F 100% 30.29 in 2.5 mi NNW 9.2 mph - 0.00 in Rain Light Rain
6:56 PM 50.9 °F - 50.0 °F 97% 30.31 in 3.0 mi North 13.8 mph - 0.01 in Rain Light Rain
7:56 PM 48.9 °F - 47.8 °F 96% 30.33 in 5.0 mi NNW 13.8 mph - 0.00 in   Overcast
8:33 PM 48.2 °F - 46.4 °F 93% 30.32 in 7.0 mi NNW 9.2 mph - N/A   Overcast
8:56 PM 47.8 °F - 46.9 °F 97% 30.35 in 7.0 mi North 8.1 mph - N/A   Overcast
9:08 PM 48.2 °F - 46.4 °F 93% 30.33 in 8.0 mi North 10.4 mph - N/A   Overcast
9:35 PM 46.4 °F 40.1 °F 44.6 °F 93% 30.34 in 6.0 mi North 15.0 mph - N/A   Overcast
9:56 PM 46.9 °F - 45.0 °F 93% 30.36 in 4.0 mi North 10.4 mph - N/A   Overcast
10:56 PM 45.0 °F 39.7 °F 41.0 °F 86% 30.36 in 7.0 mi NNE 10.4 mph - N/A   Overcast
11:56 PM 43.9 °F 37.9 °F 41.9 °F 93% 30.34 in 5.0 mi North 11.5 mph - N/A   Overcast